Voltar ao catálogo

STARLINK-36766

AtivoComunicaçõesVLEO
NORAD 68069·PAYLOAD·🇺🇸 United States

Lançado Mar 4, 2026 de Vandenberg Space Force Base

Loading…

Próximas Passagens (próximas 24 horas)

TLE

AtualizadoSource: CelesTrak SupGP

Época: Sep 14, 2026, 22:56 UTC

1 68069C 26042A   26257.95604167 -.00007057  00000+0 -20864-3 0  2573
2 68069  53.1588  15.9095 0001457  91.2820 310.2905 15.34372529    11

Acompanhe STARLINK-36766 em tempo real com AllMySat

Download on the App Store